BREEZE-M DEB (TANK), 41312

Orbit data source: Space-Track

BREEZE-M DEB (TANK), 41312 is space debris in HEO originally from a launch on Fri, 29 Jan 2016 UTC launched from the Tyuratam Missile And Space Complex (TTMTR). Debris objects in space refer to the collection of defunct objects orbiting the Earth. Examples of debris include non-operational satellites, rocket bodies, and fragments generated from explosions, collisions, or faulty payload assembly.

Loading next visibility...
Identifier
41312, 2016-005C
Orbit
HEO
Country
Flag of CISCIS
Related business
Manufacturer
Khrunichev
Mission
Spacecraft
Bus & Motor
BRIZ TANK, Unknown motor
Mass
~1,000 kg wet, 1,000 kg dry
Launch date (UTC)
2016-01-29 (10 years ago)
Launch vehicle
Unknown
Launch site
Tyuratam Missile And Space Complex (TTMTR)
Object type
Payload
Rocket body
Debris
Shape & HBR
Torus, 2.0 m
Radar Cross Section
8.218 m², Large (>1 m²)

Expand to show TLE details & history
Last TLE update: 2 days ago

TLE from 2 days ago
0 BREEZE-M DEB (TANK)
1 41312U 16005C   25305.76026568  .00003546  00000-0  11558-2 0  9998
2 41312  49.4240 217.0916 5789834 316.4151  10.2427  4.33091479149793
Epoch: 2025-11-01T18:14Z
TLE epoch observation values (Epoch: 2025-11-01T18:14:46.954Z)
Latitude
-0.00009°
Longitude
-97.91262°
Altitude
1,070.601 km
Speed
9.054 km/s
True Right ascension
14h 28m 16s
True Declination
0° 00' 00"
Sunlit
Object was in daylight at epoch
Visualization orbit readout
Latitude
Unknown
Longitude
Unknown
Altitude
Unknown
Speed
Unknown
Apparent Right ascension
Unknown
Apparent Declination
Unknown
Sunlit
N/A
Visualization observer readout
Local Sidereal Time
17:54:58
Azimuth
Unknown
Elevation
Unknown
Doppler factor
Unknown
Orbital elements
Apogee altitude
18,726.005 km
Perigee altitude
315.575 km
Semi-major axis
15,898.927 km
Eccentricity
0.57898
Inclination
49.424°
RAAN
217.0916°
Arg. of periapsis
316.4151°
True anomaly
43.7711°
Mean anomaly
10.2427°
Eccentric anomaly
23.43714°
Mean motion
1.08266 °/min
Orbital period
332.51 mins
BSTAR
0.0011558
Loading maneuver chart data...
Computing Atmospheric mass density...
Loading historical data...
Loading historical data...
Loading historical data...
Loading historical data...
Loading historical data...
Loading historical data...
Loading historical data...
Other satellites on launch #5 in the year 2016 (2016-01-29 UTC)

Documentation

Showing up to 5 results
|